Theta_e
315 315 314 314 315 315 316 317 317 318 317 317 317 316 315 314 315 318 321 323 323 323 323 324 324 327 336 337 336 345 344 346 349 347 346 344 344 346 348 348 349 348 348 346 348
317 316 316 315 314 314 314 315 316 317 318 318 317 317 315 314 314 317 321 322 323 323 324 324 323 325 332 335 338 343 342 345 345 345 345 343 344 347 349 349 348 348 347 347 347
319 319 319 318 317 316 315 314 315 316 317 318 318 317 316 314 314 317 319 321 322 323 324 324 324 324 328 330 334 342 339 340 342 346 344 344 347 345 347 350 348 347 346 347 346
317 317 318 319 319 318 317 315 315 315 316 318 318 318 316 314 324 324 321 321 324 323 323 324 323 330 330 330 330 341 340 339 341 345 345 345 346 345 344 344 344 345 346 346 345
318 317 317 317 318 319 319 318 315 315 316 317 318 318 317 315 319 323 323 322 324 324 324 324 323 329 330 329 328 328 330 338 341 344 346 345 346 346 345 344 345 346 347 346 345
317 317 318 318 317 317 318 319 317 315 315 316 318 319 317 315 317 323 322 324 324 324 324 325 325 327 327 327 327 327 326 340 345 346 347 346 346 347 345 345 346 347 347 346 345
319 318 316 316 318 317 317 319 319 315 315 315 317 319 318 317 322 323 326 324 323 324 324 325 324 324 327 326 325 325 326 337 341 342 343 345 342 339 344 345 347 347 347 347 346
320 319 318 316 316 318 317 318 319 315 315 316 317 318 318 317 323 324 325 327 322 322 323 323 323 324 325 325 323 325 329 331 333 342 341 341 342 339 345 347 349 348 348 348 347
322 320 318 318 315 318 317 318 317 316 317 317 318 318 319 318 319 324 323 327 321 321 322 323 324 324 323 321 321 321 326 328 328 333 341 340 341 340 347 348 349 349 349 348 347
322 322 319 318 316 318 317 319 316 318 318 317 318 320 320 322 319 323 322 325 322 318 321 322 323 318 315 318 323 325 323 324 324 327 339 343 341 340 346 349 349 349 349 348 347
322 322 321 318 316 318 317 318 322 324 321 321 320 321 323 324 323 322 323 323 326 321 320 321 320 322 322 319 320 321 322 323 323 323 330 329 335 337 343 344 346 347 348 348 348
322 322 322 318 317 318 317 318 322 323 319 322 325 323 325 325 326 323 323 323 324 323 319 318 320 320 321 320 321 321 321 321 321 323 324 328 336 338 340 342 343 345 346 347 347
323 322 323 318 318 319 320 319 321 321 319 323 324 324 325 326 326 325 323 323 323 323 319 318 320 319 320 321 322 321 320 320 322 322 325 333 334 333 333 338 341 342 343 345 347
323 322 323 318 320 324 323 322 324 324 319 322 324 326 325 327 326 326 324 323 321 323 317 318 318 319 319 319 318 319 318 320 321 322 321 326 324 321 323 323 336 341 342 344 345
323 323 323 319 319 325 323 322 325 324 323 326 326 327 326 326 324 324 323 323 323 320 318 321 320 318 318 317 317 318 318 319 321 319 320 320 320 321 321 323 322 334 342 343 344
322 323 323 319 319 324 323 323 325 321 327 329 327 326 325 325 324 322 320 324 325 320 319 319 320 318 318 318 317 319 319 316 314 315 318 319 320 320 321 326 327 329 337 342 344
322 323 321 319 319 323 323 323 319 325 325 327 327 324 323 324 325 323 321 321 322 322 321 319 320 319 320 320 319 316 315 316 318 317 319 316 318 320 321 321 322 323 333 338 342
322 322 320 319 321 323 323 320 327 326 328 325 325 322 324 322 324 323 321 321 320 317 317 320 322 319 319 319 319 315 315 316 321 318 318 317 320 322 320 321 323 324 327 338 341
322 325 324 319 322 322 323 320 320 325 325 325 323 325 325 324 325 323 321 319 320 317 321 319 321 321 321 321 320 318 317 315 313 313 316 317 318 321 323 325 328 327 331 338 340
322 327 326 321 322 322 318 319 321 322 324 324 325 325 325 325 325 323 322 321 321 318 320 320 323 322 323 322 320 320 317 320 314 322 323 319 321 323 324 325 322 334 337 337 339
323 327 325 321 322 323 317 318 321 325 324 326 326 327 325 326 323 323 323 324 325 323 319 317 320 324 325 324 321 319 318 315 314 315 321 322 323 319 324 325 324 322 334 337 338
323 322 324 320 321 315 318 319 323 324 326 325 324 324 323 324 325 324 325 327 327 324 321 318 316 320 322 322 321 319 319 317 320 321 316 317 322 321 321 323 324 325 328 335 337
323 325 323 321 320 318 318 320 322 323 323 324 323 322 323 324 327 325 326 327 327 325 328 320 318 321 323 323 323 324 318 316 315 315 319 322 323 322 322 325 328 328 330 330 330
321 319 322 323 319 318 319 320 320 321 322 322 320 322 323 324 322 326 326 325 324 324 327 327 316 320 324 324 323 326 323 318 319 320 319 320 323 325 325 325 326 329 330 332 334
319 314 315 316 316 316 317 318 320 320 320 319 320 321 324 324 323 324 323 321 322 323 323 321 325 324 322 321 323 325 326 323 322 322 325 324 323 324 328 326 326 332 331 332 334
317 316 317 315 316 317 314 318 319 319 319 319 320 319 321 322 321 323 322 321 322 321 322 318 326 325 327 328 328 327 326 325 324 323 322 324 324 322 337 333 338 339 335 332 333
316 316 317 314 314 316 316 318 319 317 319 319 318 318 320 319 318 319 319 320 320 321 320 320 321 323 327 326 327 331 327 326 326 328 325 326 325 328 340 339 340 342 343 345 346
Wind_Speed
8 8 9 9 8 9 9 9 9 9 8 8 8 8 8 7 10 13 18 9 8 7 7 2 1 1 3 4 2 1 3 2 3 4 4 3 3 2 2 10 5 4 2 2 21
9 9 9 9 9 9 9 9 9 9 9 8 8 8 8 8 9 16 14 13 10 8 5 3 1 1 2 2 1 2 2 5 5 5 3 2 5 10 5 5 2 4 4 11 22
9 9 10 10 10 10 10 9 9 9 8 7 8 8 8 8 6 2 8 17 13 11 7 3 2 1 0 2 4 3 4 4 8 16 6 4 5 8 10 4 11 12 17 23 24
11 10 10 11 10 10 10 10 9 9 8 7 7 7 8 5 3 1 8 17 17 13 11 5 1 2 0 2 3 3 14 16 8 12 6 5 4 4 14 8 7 11 17 23 26
12 12 12 11 11 11 11 10 9 8 8 7 7 7 7 4 4 3 4 14 17 15 11 7 2 2 1 5 8 5 5 8 17 12 14 5 10 6 11 15 6 17 22 23 23
14 13 13 13 12 12 11 10 9 8 8 7 7 7 6 4 5 3 6 9 15 15 12 8 2 1 2 4 1 7 14 10 1 3 10 7 7 6 3 14 18 21 25 24 23
16 15 14 14 13 12 11 10 9 8 8 7 7 7 10 9 7 8 7 7 10 12 11 7 4 3 6 6 8 10 6 7 2 1 4 7 5 8 9 18 24 24 25 24 24
19 17 16 15 14 12 11 10 9 7 6 6 7 7 7 5 12 12 8 5 10 13 8 6 2 5 2 6 7 5 4 5 5 2 4 3 11 3 15 25 26 27 26 26 26
21 20 18 17 14 11 9 8 7 5 4 5 5 6 6 6 13 13 9 4 4 11 9 5 1 1 2 3 5 6 1 3 9 5 2 2 8 2 20 24 22 25 28 29 26
23 22 21 18 14 10 7 5 4 3 4 4 7 4 4 1 7 14 10 7 3 10 6 4 2 3 4 5 3 3 5 5 5 4 1 6 14 4 19 21 22 26 28 29 30
24 23 22 18 14 8 5 3 2 3 9 7 1 2 1 4 7 12 13 12 3 4 4 2 4 7 7 5 3 1 3 6 14 8 4 7 10 15 18 19 18 25 27 31 33
25 24 22 18 13 6 4 3 1 2 8 12 20 20 16 6 2 5 15 9 4 3 3 5 8 6 4 4 3 3 4 8 12 6 6 6 11 6 9 18 28 30 31 35 32
26 24 21 18 11 3 3 4 3 5 2 5 7 13 16 13 8 10 18 10 4 3 3 5 5 8 5 2 3 4 5 4 8 9 5 3 8 7 7 20 27 32 39 36 36
26 24 20 15 4 4 5 2 1 2 4 4 3 2 10 7 4 11 21 12 1 9 6 5 5 6 1 5 7 5 5 9 6 1 4 4 6 6 7 9 7 17 29 35 36
26 23 19 12 4 5 0 3 3 1 3 0 2 3 13 8 6 7 21 17 8 5 6 8 4 4 4 6 8 10 5 4 4 5 2 3 2 8 4 8 9 12 27 33 36
26 23 17 9 6 8 1 2 2 5 0 2 5 4 4 2 1 4 9 13 3 5 2 8 3 6 7 5 7 3 3 4 4 3 2 3 4 7 3 6 3 5 25 33 34
25 20 12 5 7 9 4 3 5 3 4 4 1 3 2 4 1 2 5 5 5 3 4 6 8 5 7 6 2 5 6 4 4 4 6 2 2 10 9 8 8 11 14 27 31
24 12 3 5 12 9 7 4 1 2 3 3 3 2 6 6 4 2 6 5 4 5 2 1 7 7 5 10 8 7 8 5 4 2 5 1 5 6 6 17 23 22 13 17 26
19 5 4 7 8 8 5 3 4 3 3 7 6 2 2 1 3 2 7 7 9 11 8 4 6 4 5 3 9 5 4 5 7 3 2 3 8 11 5 8 11 6 9 15 23
12 5 7 8 7 6 4 3 3 3 5 3 2 1 3 1 3 3 5 3 4 12 9 6 5 4 4 4 2 6 7 3 3 3 3 5 5 6 10 11 8 5 10 14 19
4 4 5 12 6 2 3 5 5 10 6 2 1 3 3 3 6 4 2 1 2 2 10 6 4 9 5 4 7 1 2 5 5 4 6 2 6 7 8 9 8 8 14 16 19
4 3 6 9 3 2 2 3 5 5 7 2 1 4 4 1 2 3 4 1 13 2 6 5 5 6 12 2 3 5 7 5 5 5 2 3 8 3 7 9 9 13 9 14 18
5 3 4 3 3 3 5 4 3 6 6 5 5 4 4 3 2 1 3 2 13 5 2 4 2 3 10 5 1 5 5 5 5 4 7 6 7 3 8 8 11 15 17 8 12
4 2 4 3 6 4 4 4 6 10 2 4 3 3 6 7 5 3 6 2 8 8 4 5 3 6 6 7 2 4 5 6 6 4 6 7 7 6 5 6 11 14 15 10 5
6 3 3 2 4 3 1 3 4 7 7 13 5 4 0 3 4 4 4 7 6 7 5 4 3 2 6 8 5 6 6 8 6 5 7 7 9 7 6 6 7 8 11 10 10
4 4 3 2 3 1 3 3 4 6 2 4 4 8 2 1 1 3 1 2 6 4 4 4 2 1 5 5 6 6 7 6 6 4 6 4 6 7 4 6 2 4 2 2 7
8 6 2 4 4 2 1 3 4 6 1 7 4 3 2 5 20 23 19 16 9 4 3 2 3 2 5 4 7 5 5 5 4 1 2 6 7 2 3 5 8 10 10 10 7
Wind_Direction
344 339 334 329 324 318 312 308 306 305 307 311 310 307 301 283 260 246 238 224 215 198 191 222 355 281 335 314 288 103 53 295 236 184 252 214 130 176 190 138 174 207 247 219 176
343 337 333 328 323 318 313 310 306 302 304 308 308 310 311 301 268 247 221 226 224 204 216 212 107 21 322 349 193 114 115 238 212 200 233 223 176 158 148 154 216 192 218 162 174
337 332 328 327 323 320 317 312 307 302 300 302 304 309 315 319 298 225 206 214 211 212 220 238 315 286 33 258 199 195 218 240 269 238 191 200 241 193 150 223 221 192 167 168 177
343 333 327 323 321 317 316 314 309 302 297 296 297 305 314 314 159 119 189 198 203 208 220 246 277 116 301 279 265 239 247 238 268 244 193 208 194 191 196 220 281 200 179 176 185
352 343 334 325 319 315 313 311 308 301 292 289 292 301 316 281 233 119 145 186 199 207 211 210 235 179 264 299 320 185 285 322 250 258 222 232 243 220 220 227 232 179 181 185 190
354 347 339 331 321 314 308 305 306 300 290 282 281 288 294 279 188 185 132 181 206 206 206 210 203 28 270 259 218 298 308 300 39 287 241 213 266 193 240 202 177 183 188 194 196
356 349 341 333 324 316 306 301 302 297 286 272 268 276 274 233 180 163 152 165 204 217 219 222 247 303 329 318 331 298 320 328 269 166 279 214 287 238 203 181 180 190 194 198 203
355 351 344 335 328 320 304 298 301 296 279 264 264 276 258 204 196 187 181 184 207 213 221 229 281 296 280 305 340 3 36 2 312 334 274 138 274 316 188 178 186 193 200 205 207
352 350 345 338 331 323 303 296 303 291 262 249 255 258 268 223 207 195 193 189 203 193 178 146 259 311 4 46 7 6 329 325 329 309 291 196 275 316 183 182 184 195 204 208 210
348 347 344 338 334 323 300 289 287 265 240 232 239 294 247 113 195 193 193 193 83 159 150 177 167 65 36 65 249 336 353 318 266 289 267 257 263 234 192 191 198 199 206 214 216
346 344 343 338 335 319 281 249 251 279 234 218 244 178 1 100 168 201 202 205 171 144 129 118 94 212 218 175 193 301 243 274 281 277 291 253 262 264 194 200 205 211 207 216 225
345 342 343 338 335 309 243 211 234 321 300 263 246 249 242 239 348 183 196 167 156 168 116 28 237 201 171 157 191 231 295 282 289 274 170 298 270 255 197 217 214 212 211 220 226
342 339 342 336 332 303 156 148 301 288 277 284 247 244 243 230 232 205 191 177 132 153 151 164 215 106 152 186 202 224 216 230 238 335 284 15 306 282 250 225 225 225 230 226 224
338 334 337 333 335 128 124 23 316 156 53 271 263 251 168 152 220 210 201 177 162 195 158 238 274 243 221 243 153 285 212 242 258 25 266 90 285 279 269 281 218 216 207 217 222
335 329 330 320 268 177 135 22 118 2 31 75 150 150 166 170 140 186 191 189 181 170 122 242 199 195 183 218 168 238 141 222 249 233 19 310 50 271 333 289 276 214 221 222 225
334 325 322 309 223 185 149 77 127 42 305 48 126 143 138 241 59 115 171 196 198 142 237 236 234 173 218 161 178 262 2 39 59 91 347 260 135 286 261 219 258 246 222 222 222
334 326 317 271 176 184 168 157 37 126 337 6 15 146 147 192 204 108 141 175 177 103 287 326 254 227 207 304 111 95 60 336 343 8 227 323 16 239 269 265 244 261 248 219 219
339 335 331 166 162 175 166 53 120 305 306 340 21 108 180 162 215 127 125 199 226 95 86 250 318 167 189 190 184 182 156 161 232 216 267 348 249 260 239 289 278 270 261 222 212
345 7 57 163 159 166 165 83 214 219 306 331 336 111 247 227 142 129 191 204 203 171 179 178 270 277 205 180 144 191 165 183 107 25 42 252 293 301 304 341 359 285 221 209 213
349 96 66 147 152 145 81 231 254 236 315 358 2 20 171 210 136 167 187 207 241 190 165 207 290 235 276 140 59 176 156 80 7 167 256 291 277 239 316 317 328 299 240 218 222
357 106 79 138 139 100 139 234 276 284 280 245 287 303 245 223 166 199 193 279 330 315 191 143 136 256 19 222 185 159 178 57 126 132 168 212 265 214 243 260 285 271 244 238 233
34 66 136 147 55 43 133 208 315 297 357 320 109 224 229 250 223 229 172 106 353 165 152 216 162 239 235 242 191 190 201 156 132 236 148 152 273 261 259 267 267 275 253 233 241
21 69 142 48 96 357 320 318 285 341 351 351 0 23 355 24 314 26 17 85 24 50 115 177 229 335 331 355 325 202 183 139 110 87 190 144 261 280 320 341 350 329 319 232 227
13 49 58 87 68 104 18 346 327 346 84 34 7 49 25 21 31 349 348 358 348 21 17 164 153 183 205 229 245 263 197 172 139 134 173 215 260 298 331 302 318 330 336 290 230
34 55 41 351 15 30 55 358 343 353 359 26 25 46 23 41 357 3 354 332 343 1 30 90 226 215 266 270 271 254 229 172 204 209 161 215 193 240 251 243 279 312 320 291 268
53 31 21 42 329 348 355 37 5 325 348 351 42 321 346 354 176 268 239 218 250 317 30 352 255 344 289 343 346 282 271 256 242 141 296 158 252 205 241 243 148 50 338 255 274
37 22 20 6 1 76 339 323 335 357 331 73 348 339 5 348 316 288 274 270 251 223 233 205 157 71 259 324 326 301 265 281 244 353 216 177 232 21 33 48 35 51 83 79 53